Time,TemperatureF,DewpointF,PressureIn,WindDirection,WindDirectionDegrees,WindSpeedMPH,WindSpeedGustMPH,Humidity,HourlyPrecipIn,Conditions,Clouds,dailyrainin,SoftwareType,DateUTC
2013-08-13 13:02:00,71.6,66.2,29.64,ESE,103,1.2,-999.9,83,-99.99,,,-99.99,,2013-08-13 17:02:00,
2013-08-13 13:04:00,71.6,66.2,29.64,ESE,103,1.2,-999.9,83,-99.99,,,-99.99,,2013-08-13 17:04:00,
2013-08-13 13:06:00,71.6,66.2,29.64,ESE,103,1.2,-999.9,83,-99.99,,,-99.99,,2013-08-13 17:06:00,
2013-08-13 13:14:00,71.6,66.2,29.63,SE,131,9.2,-999.9,83,-99.99,,,-99.99,,2013-08-13 17:14:00,
2013-08-13 13:20:00,71.6,66.2,29.63,SE,131,9.2,-999.9,83,-99.99,,,-99.99,,2013-08-13 17:20:00,
2013-08-13 13:26:00,71.6,66.2,29.63,ESE,108,9.2,-999.9,83,-99.99,,,-99.99,,2013-08-13 17:26:00,
2013-08-13 13:32:00,73.4,66.2,29.62,ESE,118,6.9,-999.9,78,-99.99,,,-99.99,,2013-08-13 17:32:00,
2013-08-13 13:38:00,73.4,66.2,29.62,ESE,118,6.9,-999.9,78,-99.99,,,-99.99,,2013-08-13 17:38:00,
2013-08-13 13:44:00,73.4,66.2,29.61,ENE,62,2.3,-999.9,78,-99.99,,,-99.99,,2013-08-13 17:44:00,
2013-08-13 13:50:00,73.4,66.2,29.61,ENE,62,2.3,-999.9,78,-99.99,,,-99.99,,2013-08-13 17:50:00,
2013-08-13 13:56:00,73.4,66.2,29.61,East,94,3.5,-999.9,78,-99.99,,,-99.99,,2013-08-13 17:56:00,
2013-08-13 14:02:00,75.2,68.0,29.62,South,177,2.3,-999.9,78,-99.99,,,-99.99,,2013-08-13 18:02:00,
2013-08-13 14:08:00,75.2,68.0,29.62,South,177,2.3,-999.9,78,-99.99,,,-99.99,,2013-08-13 18:08:00,
2013-08-13 14:14:00,75.2,66.2,29.61,SSE,152,4.6,-999.9,73,-99.99,,,-99.99,,2013-08-13 18:14:00,
2013-08-13 14:20:00,75.2,66.2,29.61,SSE,152,4.6,-999.9,73,-99.99,,,-99.99,,2013-08-13 18:20:00,
2013-08-13 14:26:00,75.2,66.2,29.61,SSE,149,6.9,-999.9,73,-99.99,,,-99.99,,2013-08-13 18:26:00,
2013-08-13 14:32:00,75.2,66.2,29.61,SSE,168,6.9,-999.9,73,-99.99,,,-99.99,,2013-08-13 18:32:00,
2013-08-13 14:38:00,75.2,66.2,29.61,SSE,168,6.9,-999.9,73,-99.99,,,-99.99,,2013-08-13 18:38:00,
2013-08-13 14:44:00,77.0,68.0,29.60,NE,49,8.1,-999.9,74,-99.99,,,-99.99,,2013-08-13 18:44:00,
2013-08-13 14:50:00,77.0,68.0,29.60,NE,49,8.1,-999.9,74,-99.99,,,-99.99,,2013-08-13 18:50:00,
2013-08-13 14:56:00,77.0,66.2,29.60,East,97,1.2,-999.9,69,-99.99,,,-99.99,,2013-08-13 18:56:00,
2013-08-13 15:02:00,75.2,64.4,29.60,ENE,66,3.5,-999.9,69,-99.99,,,-99.99,,2013-08-13 19:02:00,
2013-08-13 15:08:00,75.2,64.4,29.60,ENE,66,3.5,-999.9,69,-99.99,,,-99.99,,2013-08-13 19:08:00,
2013-08-13 15:14:00,77.0,66.2,29.60,East,83,3.5,-999.9,69,-99.99,,,-99.99,,2013-08-13 19:14:00,
2013-08-13 15:20:00,77.0,66.2,29.60,East,83,3.5,-999.9,69,-99.99,,,-99.99,,2013-08-13 19:20:00,
2013-08-13 15:26:00,78.8,66.2,29.59,ESE,123,3.5,-999.9,65,-99.99,,,-99.99,,2013-08-13 19:26:00,
2013-08-13 15:32:00,78.8,68.0,29.59,East,93,2.3,-999.9,69,-99.99,,,-99.99,,2013-08-13 19:32:00,
2013-08-13 15:38:00,78.8,68.0,29.59,East,93,2.3,-999.9,69,-99.99,,,-99.99,,2013-08-13 19:38:00,
2013-08-13 15:44:00,77.0,68.0,29.59,SE,132,1.2,-999.9,74,-99.99,,,-99.99,,2013-08-13 19:44:00,
2013-08-13 15:50:00,77.0,68.0,29.59,SE,132,1.2,-999.9,74,-99.99,,,-99.99,,2013-08-13 19:50:00,
2013-08-13 15:56:00,77.0,68.0,29.59,North,0,0.0,-999.9,74,-99.99,,,-99.99,,2013-08-13 19:56:00,
2013-08-13 16:02:00,77.0,66.2,29.59,East,95,2.3,-999.9,69,-99.99,,,-99.99,,2013-08-13 20:02:00,
2013-08-13 16:08:00,77.0,66.2,29.59,East,95,2.3,-999.9,69,-99.99,,,-99.99,,2013-08-13 20:08:00,
2013-08-13 16:14:00,78.8,66.2,29.59,East,91,3.5,-999.9,65,-99.99,,,-99.99,,2013-08-13 20:14:00,
2013-08-13 16:20:00,78.8,66.2,29.59,East,91,3.5,-999.9,65,-99.99,,,-99.99,,2013-08-13 20:20:00,
2013-08-13 16:26:00,77.0,64.4,29.58,SE,125,5.8,-999.9,65,-99.99,,,-99.99,,2013-08-13 20:26:00,
2013-08-13 16:32:00,78.8,64.4,29.58,ESE,113,9.2,-999.9,61,-99.99,,,-99.99,,2013-08-13 20:32:00,
2013-08-13 16:38:00,78.8,64.4,29.58,ESE,113,9.2,-999.9,61,-99.99,,,-99.99,,2013-08-13 20:38:00,
2013-08-13 16:44:00,78.8,64.4,29.59,ESE,118,4.6,-999.9,61,-99.99,,,-99.99,,2013-08-13 20:44:00,
2013-08-13 16:50:00,78.8,64.4,29.59,ESE,118,4.6,-999.9,61,-99.99,,,-99.99,,2013-08-13 20:50:00,
2013-08-13 16:56:00,78.8,64.4,29.58,NE,49,4.6,-999.9,61,-99.99,,,-99.99,,2013-08-13 20:56:00,
2013-08-13 17:02:00,78.8,64.4,29.58,NE,45,5.8,-999.9,61,-99.99,,,-99.99,,2013-08-13 21:02:00,
2013-08-13 17:08:00,78.8,64.4,29.58,NE,45,5.8,-999.9,61,-99.99,,,-99.99,,2013-08-13 21:08:00,
2013-08-13 17:10:00,78.8,64.4,29.58,NE,45,5.8,-999.9,61,-99.99,,,-99.99,,2013-08-13 21:10:00,
2013-08-13 17:16:00,78.8,64.4,29.58,NE,55,3.5,-999.9,61,-99.99,,,-99.99,,2013-08-13 21:16:00,
2013-08-13 17:22:00,78.8,64.4,29.58,ENE,72,4.6,-999.9,61,-99.99,,,-99.99,,2013-08-13 21:22:00,
2013-08-13 17:28:00,78.8,64.4,29.58,ENE,72,4.6,-999.9,61,-99.99,,,-99.99,,2013-08-13 21:28:00,
2013-08-13 17:34:00,78.8,64.4,29.57,SSE,157,3.5,-999.9,61,-99.99,,,-99.99,,2013-08-13 21:34:00,
2013-08-13 17:40:00,78.8,64.4,29.57,SSE,157,3.5,-999.9,61,-99.99,,,-99.99,,2013-08-13 21:40:00,
2013-08-13 17:46:00,78.8,64.4,29.58,SE,145,3.5,-999.9,61,-99.99,,,-99.99,,2013-08-13 21:46:00,
2013-08-13 17:52:00,78.8,64.4,29.58,SSE,151,3.5,-999.9,61,-99.99,,,-99.99,,2013-08-13 21:52:00,
2013-08-13 17:58:00,78.8,64.4,29.58,SSE,151,3.5,-999.9,61,-99.99,,,-99.99,,2013-08-13 21:58:00,
2013-08-13 18:04:00,78.8,64.4,29.57,SSE,156,4.6,-999.9,61,-99.99,,,-99.99,,2013-08-13 22:04:00,
2013-08-13 18:10:00,78.8,64.4,29.57,SSE,156,4.6,-999.9,61,-99.99,,,-99.99,,2013-08-13 22:10:00,
2013-08-13 18:16:00,78.8,64.4,29.57,SSE,152,3.5,-999.9,61,-99.99,,,-99.99,,2013-08-13 22:16:00,
2013-08-13 18:22:00,78.8,64.4,29.57,North,0,0.0,-999.9,61,-99.99,,,-99.99,,2013-08-13 22:22:00,
2013-08-13 18:28:00,78.8,64.4,29.57,North,0,0.0,-999.9,61,-99.99,,,-99.99,,2013-08-13 22:28:00,
2013-08-13 18:34:00,78.8,64.4,29.57,SSE,163,4.6,-999.9,61,-99.99,,,-99.99,,2013-08-13 22:34:00,
2013-08-13 18:40:00,78.8,64.4,29.57,SSE,163,4.6,-999.9,61,-99.99,,,-99.99,,2013-08-13 22:40:00,
2013-08-13 18:46:00,78.8,64.4,29.57,ESE,106,2.3,-999.9,61,-99.99,,,-99.99,,2013-08-13 22:46:00,
2013-08-13 18:52:00,78.8,66.2,29.57,ESE,116,4.6,-999.9,65,-99.99,,,-99.99,,2013-08-13 22:52:00,
2013-08-13 18:58:00,78.8,66.2,29.57,ESE,116,4.6,-999.9,65,-99.99,,,-99.99,,2013-08-13 22:58:00,
2013-08-13 19:04:00,77.0,64.4,29.57,SE,133,3.5,-999.9,65,-99.99,,,-99.99,,2013-08-13 23:04:00,
2013-08-13 19:10:00,77.0,64.4,29.57,SE,133,3.5,-999.9,65,-99.99,,,-99.99,,2013-08-13 23:10:00,
2013-08-13 19:16:00,77.0,66.2,29.58,South,173,5.8,-999.9,69,-99.99,,,-99.99,,2013-08-13 23:16:00,
2013-08-13 19:22:00,75.2,66.2,29.58,South,184,11.5,-999.9,73,-99.99,,,-99.99,,2013-08-13 23:22:00,
2013-08-13 19:28:00,75.2,66.2,29.58,South,184,11.5,-999.9,73,-99.99,,,-99.99,,2013-08-13 23:28:00,
2013-08-13 19:34:00,75.2,66.2,29.59,South,189,9.2,-999.9,73,-99.99,,,-99.99,,2013-08-13 23:34:00,
2013-08-13 19:40:00,75.2,66.2,29.59,South,189,9.2,-999.9,73,-99.99,,,-99.99,,2013-08-13 23:40:00,
2013-08-13 19:46:00,75.2,66.2,29.59,SSE,168,8.1,-999.9,73,-99.99,,,-99.99,,2013-08-13 23:46:00,
2013-08-13 19:52:00,75.2,66.2,29.60,South,185,9.2,-999.9,73,-99.99,,,-99.99,,2013-08-13 23:52:00,
2013-08-13 19:58:00,75.2,66.2,29.60,South,185,9.2,-999.9,73,-99.99,,,-99.99,,2013-08-13 23:58:00,
2013-08-13 20:04:00,75.2,66.2,29.60,South,175,3.5,-999.9,73,-99.99,,,-99.99,,2013-08-14 00:04:00,
2013-08-13 20:10:00,75.2,66.2,29.60,South,175,3.5,-999.9,73,-99.99,,,-99.99,,2013-08-14 00:10:00,
2013-08-13 21:02:00,73.4,66.2,29.60,South,189,6.9,-999.9,78,-99.99,,,-99.99,,2013-08-14 01:02:00,
2013-08-13 21:08:00,73.4,66.2,29.60,South,189,6.9,-999.9,78,-99.99,,,-99.99,,2013-08-14 01:08:00,
2013-08-13 21:14:00,73.4,66.2,29.60,SSW,193,3.5,-999.9,78,-99.99,,,-99.99,,2013-08-14 01:14:00,
2013-08-13 21:20:00,73.4,66.2,29.60,SSW,193,3.5,-999.9,78,-99.99,,,-99.99,,2013-08-14 01:20:00,
2013-08-13 21:26:00,73.4,66.2,29.60,SSE,166,3.5,-999.9,78,-99.99,,,-99.99,,2013-08-14 01:26:00,
2013-08-13 21:32:00,73.4,66.2,29.61,SSW,213,6.9,-999.9,78,-99.99,,,-99.99,,2013-08-14 01:32:00,
2013-08-13 21:38:00,73.4,66.2,29.61,SSW,213,6.9,-999.9,78,-99.99,,,-99.99,,2013-08-14 01:38:00,
2013-08-13 21:44:00,73.4,68.0,29.61,SW,231,1.2,-999.9,83,-99.99,,,-99.99,,2013-08-14 01:44:00,
2013-08-13 21:50:00,73.4,68.0,29.61,SW,231,1.2,-999.9,83,-99.99,,,-99.99,,2013-08-14 01:50:00,
2013-08-13 21:56:00,73.4,68.0,29.62,West,266,2.3,-999.9,83,-99.99,,,-99.99,,2013-08-14 01:56:00,
2013-08-13 22:02:00,73.4,68.0,29.62,SW,224,4.6,-999.9,83,-99.99,,,-99.99,,2013-08-14 02:02:00,
2013-08-13 22:08:00,73.4,68.0,29.62,SW,224,4.6,-999.9,83,-99.99,,,-99.99,,2013-08-14 02:08:00,
2013-08-13 22:14:00,75.2,69.8,29.61,South,185,4.6,-999.9,83,-99.99,,,-99.99,,2013-08-14 02:14:00,
2013-08-13 22:20:00,75.2,69.8,29.61,South,185,4.6,-999.9,83,-99.99,,,-99.99,,2013-08-14 02:20:00,
2013-08-13 22:26:00,73.4,66.2,29.63,NW,319,23.0,-999.9,78,-99.99,,,-99.99,,2013-08-14 02:26:00,
2013-08-13 22:32:00,69.8,66.2,29.63,NW,319,15.0,-999.9,88,-99.99,,,-99.99,,2013-08-14 02:32:00,
2013-08-13 22:38:00,69.8,66.2,29.63,NW,319,15.0,-999.9,88,-99.99,,,-99.99,,2013-08-14 02:38:00,
2013-08-13 22:44:00,69.8,68.0,29.63,NNW,336,8.1,-999.9,94,-99.99,,,-99.99,,2013-08-14 02:44:00,
2013-08-13 22:50:00,69.8,68.0,29.63,NNW,336,8.1,-999.9,94,-99.99,,,-99.99,,2013-08-14 02:50:00,
2013-08-13 22:56:00,69.8,68.0,29.63,WSW,247,4.6,-999.9,94,-99.99,,,-99.99,,2013-08-14 02:56:00,
2013-08-13 23:02:00,69.8,68.0,29.64,NW,317,0.0,-999.9,94,-99.99,,,-99.99,,2013-08-14 03:02:00,
2013-08-13 23:08:00,69.8,68.0,29.64,NW,317,0.0,-999.9,94,-99.99,,,-99.99,,2013-08-14 03:08:00,
2013-08-13 23:14:00,69.8,68.0,29.63,NW,314,3.5,-999.9,94,-99.99,,,-99.99,,2013-08-14 03:14:00,
2013-08-13 23:20:00,69.8,68.0,29.63,NW,314,3.5,-999.9,94,-99.99,,,-99.99,,2013-08-14 03:20:00,
2013-08-13 23:26:00,69.8,68.0,29.64,North,0,0.0,-999.9,94,-99.99,,,-99.99,,2013-08-14 03:26:00,
2013-08-13 23:32:00,69.8,68.0,29.63,West,277,1.2,-999.9,94,-99.99,,,-99.99,,2013-08-14 03:32:00,
2013-08-13 23:38:00,69.8,68.0,29.63,West,277,1.2,-999.9,94,-99.99,,,-99.99,,2013-08-14 03:38:00,
2013-08-13 23:44:00,69.8,68.0,29.63,NW,314,2.3,-999.9,94,-99.99,,,-99.99,,2013-08-14 03:44:00,
2013-08-13 23:50:00,69.8,68.0,29.63,NW,314,2.3,-999.9,94,-99.99,,,-99.99,,2013-08-14 03:50:00,
2013-08-13 23:56:00,69.8,66.2,29.64,WNW,284,6.9,-999.9,88,-99.99,,,-99.99,,2013-08-14 03:56:00,